Location: Barrio Las Umbrías
(40.4173°N, 4.8685°W)
Time: 12:21:32
(UTC+00:00)

Cosmos 1666 - Pass Details

Date: 17 August 2022
Orbit: 488 x 510 km, 82.5° (Epoch: 27 September)

Event Time Altitude Azimuth Distance (km) Brightness Sun altitude
Exits shadow 20:57:29 23° 62° (ENE) 1,116 4.1 -18.3°
Drops below altitude 10° 20:59:34 10° 33° (NNE) 1,713 5.4 -18.6°
Sets 21:01:56 0° 21° (NNE) 2,607 6.5 -18.9°
